{"data":{"norad_id":66888,"epoch":"2026-05-25T04:12:45.241632Z","epoch_age_seconds":53899,"freshness":"FRESH","line1":"1 66888U 25283L   26145.17552363 -.00554359  00000+0 -20818-1 0  9998","line2":"2 66888  53.1590  28.9579 0007830 114.2783 245.9036 15.29066758 27552","mean_motion":15.29066758,"eccentricity":0.000783,"inclination_deg":53.159,"raan_deg":28.9579,"arg_perigee_deg":114.2783,"mean_anomaly_deg":245.9036,"bstar":-0.020818,"rev_number":2755,"period_min":94.175090293867,"perigee_km":473.23198966473,"apogee_km":483.9696410836,"semimajor_km":6856.7378153742,"source":"CELESTRAK","updated_at":"2026-05-25T13:38:21.380014Z"}}